Hourly Data Report for January 11, 2018

All times are specified in Local Standard Time (LST). Add 1 hour to adjust for Daylight Saving Time where and when it is observed.

HAMILTON A
ONTARIO

43°10'25.000" N
79°56'06.000" W
237.70 m
6153193
71263
YHM

Download Data

Hourly Data (January 2018)
Hourly Data Report for January 11, 2018
Temp Definition
°C
Dew Point Temp Definition
°C
Rel Hum Definition
%
Wind Dir Definition
10's deg

Wind Spd Definition
km/h
Visibility Definition
km
Stn Press Definition
kPa
Hmdx Definition


Wind Chill Definition


Weather Definition


TIME
00:00 5.4 2.1 79 20 24 24.1 98.76     LegendNANA
01:00 5.3 2.5 82 19 24 24.1 98.68     Cloudy
02:00 5.7 2.4 79 19 23 24.1 98.68     LegendNANA
03:00 6.0 3.2 83 20 27 24.1 98.73     Rain
04:00 6.2 3.5 83 21 26 24.1 98.72     Cloudy
05:00 6.1 3.3 82 20 22 24.1 98.73     Rain
06:00 6.6 3.6 81 20 25 24.1 98.74     LegendNANA
07:00 6.6 4.2 84 20 25 24.1 98.72     Cloudy
08:00 6.8 4.6 86 20 26 24.1 98.76     LegendNANA
09:00 7.7 5.0 83 20 32 24.1 98.79     LegendNANA
10:00 8.0 5.2 82 20 27 24.1 98.79     Cloudy
11:00 8.3 5.3 81 20 29 24.1 98.78     LegendNANA
12:00 9.2 5.7 79 20 28 24.1 98.69     LegendNANA
13:00 9.6 6.1 79 20 25 24.1 98.58     Mostly Cloudy
14:00 10.7 7.0 78 20 31 24.1 98.51     LegendNANA
15:00 10.6 7.2 80 20 22 24.1 98.46     LegendNANA
16:00 9.4 8.2 92 19 28 11.3 98.44     Rain
17:00 9.9 9.7 99 20 27 3.2 98.40     Rain,Fog
18:00 10.0 9.8 99 20 17 1.6 98.39     Rain,Fog
19:00 9.5 9.3 99 19 22 2.0 98.31     Rain,Fog
20:00 8.9 8.8 99 20 18 2.4 98.26     Rain,Fog
21:00 8.9 8.8 99 19 26 3.2 98.20     Rain,Fog
22:00 9.3 9.1 99 20 30 6.4 98.12     Rain,Fog
23:00 9.8 9.6 99 19 34 4.8 98.05     Rain,Fog

Notes on Data Quality.

Legend

  • E = Estimated
  • M = Missing
  • NA = Not Available
Date modified: